Regional Weather Roundup
Issued by NWS Northern Indiana

Home | Current Version | Previous Version | Text Only | Print | Product List | Glossary Off
Versions: 1 2 3 4 5 6 7 8 9 10 11 12 13 14 15 16 17 18 19 20 21 22 23 24 25 26 27 28 29 30 31 32 33 34 35 36 37 38 39 40 41 42 43 44 45 46 47 48 49 50

000
ASUS43 KIWX 291300
RWRIWX

KIWX WEATHER ROUNDUP
NATIONAL WEATHER SERVICE NORTHERN INDIANA
900 AM EDT FRI JUL 29 2016

NOTE: "FAIR" INDICATES FEW OR NO CLOUDS BELOW 12,000 FEET WITH NO
SIGNIFICANT WEATHER AND/OR OBSTRUCTIONS TO VISIBILITY.

* THESE STATIONS ARE NOT UNDER NWS QUALITY CONTROL. THEY ALSO MAY NOT
  REPORT WEATHER SUCH AS PRECIPITATION OR FOG.

INZ001>027-291400-
NORTHERN INDIANA

CITY           SKY/WX    TMP DP  RH WIND       PRES   REMARKS
GARY*          MOSUNNY   73  73 100 CALM      29.93R
KNOX*          SUNNY     68  68 100 E5        29.92F
SOUTH BEND     SUNNY     72  68  87 E8        29.94S
ELKHART*       SUNNY     72  66  83 E6        29.95S
GOSHEN         SUNNY     73  65  75 E7        29.94F
MONTICELLO*    SUNNY     72  66  81 CALM      29.91F
ANGOLA*        MOSUNNY   72  63  73 E5        29.95S
FORT WAYNE     PTSUNNY   72  68  87 E7        29.94F FOG

$$
INZ028>050-291400-
CENTRAL INDIANA

CITY           SKY/WX    TMP DP  RH WIND       PRES   REMARKS
LAFAYETTE      PTSUNNY   71  71 100 CALM      29.91F FOG
KOKOMO*        SUNNY     72  66  83 CALM      29.92F
MUNCIE*        SUNNY     76  69  79 CALM      29.94S
INDIANAPOLIS   FOG       73  70  90 S5        29.94S VSB 1/2

$$
MIZ043>046-050>051-056>058-064>065-071>073-077>080-291400-
SOUTHWEST LOWER MICHIGAN

CITY           SKY/WX    TMP DP  RH WIND       PRES   REMARKS
BATTLE CREEK   LGT RAIN  65  65 100 NE7       29.98S FOG
BENTON HARBOR  SUNNY     73  66  78 E8        29.94R
COLDWATER*     LGT RAIN  67  64  91 N8        29.97R
HILLSDALE*     MOSUNNY   71  62  73 E6        29.96F
HOLLAND        CLOUDY    67  64  90 E12       29.98S THUNDER
GRAND RAPIDS   PTSUNNY   68  62  81 E12       29.99R
KALAMAZOO      CLOUDY    68  64  87 NE5       29.96F
STURGIS*       MOSUNNY   70  65  82 E8        29.94F
THREE RIVERS*  CLOUDY    72  65  77 E6        29.96R

$$
OHZ001>008-015>018-024>025-291400-
NORTHWEST OHIO

CITY           SKY/WX    TMP DP  RH WIND       PRES   REMARKS
DEFIANCE       CLOUDY    74  62  66 NE6       29.95S
FINDLAY        SUNNY     74  66  76 SE3       29.95R
TOLEDO EXPRESS MOSUNNY   72  64  76 N3        29.95R
TOLEDO METCALF SUNNY     77  68  73 VRB3      29.95S
LIMA           SUNNY     73  69  87 E3        29.95S

$$
AND FOR LAKE MICHIGAN COASTAL AND OPEN LAKE BUOY OBSERVATIONS

STATION/POSITION TEMP    WIND        PRES    VSBY  WAVE
                 AIR SEA DIR/SP/G                  HT/PER
                 (F)     (DEG/KT/KT) (MB)    (MI)  (FT/S)
CALUMET HARBOR    73      20/  2/  3 1012.6R
MICHIGAN CITY     69      20/  4/  4   N/A
BURNS HARBOR      72      50/  1/  6 1013.9R
SAINT JOSEPH      70      30/  2/  5 1014.2R
SOUTH LAKE BUOY   71 75   80/ 16/ 19 1013.0          3/ 4
4 MI NW BRIDGMAN  70 76  110/  6/  8 1013.4R         2
MICHIGAN CITY     72 77   90/  4/  6   N/A           2/ 6

$$
&&



USA.gov is the U.S. government's official web portal to all federal, state and local government web resources and services.